RH
92 85 85 91 92 92 96 95 81 70 73 81 84 79 65 58 58 58 60 59 50 53 62 57 53 53 48 46 49 55 62 65 62 57 60 72 79 85 92 85 77 71 60 58 59 52 42 29 26 31 24 19 19 15 14 17 17 21 24 25 37 56 70 64 42 28 27 22 19 19 18 14 12 12 10 10 13 13 14 17 18 16 15 12 15 21 17
94 90 87 84 82 86 91 88 78 69 71 81 84 75 63 57 54 54 63 61 50 56 63 56 52 52 48 49 52 52 56 61 62 60 63 73 83 89 92 84 77 75 75 75 70 61 56 42 28 30 30 22 17 15 12 14 18 17 22 39 51 56 62 58 49 47 43 36 31 27 23 18 14 13 11 11 11 12 15 17 18 18 16 12 16 20 16
96 92 85 79 77 82 83 80 75 66 64 74 80 71 63 62 52 44 53 59 52 53 55 54 57 57 55 59 59 55 55 54 53 56 61 68 80 89 91 83 79 81 82 82 74 62 61 57 40 33 34 27 20 16 11 13 17 14 25 47 52 57 71 67 55 57 59 54 47 36 26 21 17 13 11 11 11 12 17 21 23 22 16 11 14 17 17
96 90 82 76 76 83 85 79 72 63 58 68 79 73 64 59 49 39 42 45 43 45 45 49 57 57 59 67 64 60 60 52 44 51 62 67 72 81 86 81 79 79 76 81 87 78 67 61 53 45 41 33 24 16 11 13 15 16 26 35 35 46 64 61 47 43 43 43 39 29 21 19 20 15 10 11 12 12 17 23 25 22 18 16 17 17 20
95 88 82 77 76 87 94 83 71 61 53 63 77 72 60 54 48 46 52 48 41 41 39 41 49 50 56 69 68 62 59 52 47 53 61 64 67 76 81 77 79 81 75 78 91 96 86 68 56 53 48 38 29 20 14 13 15 22 24 19 29 50 53 45 42 38 35 35 29 22 20 18 17 15 12 11 11 13 21 26 22 18 22 27 25 22 23
92 87 84 79 79 91 95 84 73 61 51 59 70 57 44 47 45 47 59 58 49 48 43 40 46 50 55 62 63 59 54 55 61 61 56 58 66 79 83 76 77 79 76 83 91 95 94 78 62 60 52 40 36 29 19 13 17 24 19 17 44 70 59 42 43 43 41 38 28 20 19 16 13 14 15 12 11 16 24 24 16 18 28 31 27 27 24
90 89 88 83 84 93 94 85 76 65 55 56 59 47 40 49 50 47 55 58 56 57 53 48 51 53 52 52 52 53 54 59 64 59 58 62 65 78 90 85 81 80 79 91 97 89 84 77 68 69 64 51 44 35 22 16 18 21 19 27 52 69 62 52 48 44 40 37 28 19 16 15 14 14 14 13 13 14 18 19 18 22 30 30 28 32 31
89 89 90 88 89 92 94 89 77 69 64 57 51 49 49 55 58 57 64 67 62 57 52 49 49 45 43 48 49 48 53 63 65 56 60 70 68 75 89 84 76 80 83 90 94 85 77 76 74 76 74 62 49 39 26 20 21 20 21 37 58 62 56 50 46 42 41 38 31 23 16 14 15 14 12 12 14 13 16 25 28 25 27 30 30 34 35
87 89 91 93 93 91 93 93 80 72 73 62 49 49 51 53 56 62 74 78 65 55 51 49 45 40 42 51 52 48 53 61 63 57 54 59 63 71 83 82 77 77 77 78 79 72 67 71 73 70 68 58 45 39 32 25 26 24 22 43 69 70 54 44 44 46 42 36 34 31 21 15 17 19 14 12 15 16 19 29 32 25 24 29 32 35 36
84 86 90 95 97 92 92 95 84 76 78 70 55 51 51 55 58 59 68 75 63 52 49 44 40 40 44 48 48 50 55 51 54 63 57 47 54 68 76 84 88 84 77 72 66 57 54 59 57 52 51 47 37 36 37 33 31 28 28 44 67 76 70 62 56 49 39 33 33 31 25 22 26 25 17 13 16 16 16 24 27 23 21 26 35 38 34
85 85 87 94 98 94 93 97 89 81 83 80 69 59 55 63 67 59 60 67 57 44 41 40 41 43 44 45 46 49 52 47 49 64 63 50 57 73 74 75 85 86 77 62 49 44 46 47 41 37 38 37 32 32 36 36 32 31 40 55 68 79 84 76 62 48 37 30 26 30 37 39 32 22 14 14 15 14 16 23 24 20 18 22 31 33 28
87 85 86 91 97 97 95 96 92 84 84 88 84 69 59 65 69 59 59 68 60 46 44 44 44 45 44 46 50 49 49 49 46 52 65 69 70 72 69 73 83 79 63 50 41 38 40 41 39 38 35 31 28 26 28 32 32 29 36 45 54 68 78 74 63 49 36 28 26 36 45 37 23 17 14 13 13 12 14 18 16 15 17 19 23 25 26
87 87 88 88 92 97 97 93 92 88 83 87 89 77 64 64 64 55 58 71 67 54 51 49 42 44 48 51 54 49 45 46 42 41 58 74 75 67 62 69 77 65 50 51 53 46 43 44 42 41 36 30 31 31 29 31 31 31 32 30 35 54 69 67 56 46 38 34 34 39 37 24 18 20 17 14 14 14 17 19 16 13 15 17 18 18 22
87 87 87 85 86 94 97 93 93 92 84 84 90 87 73 63 61 58 62 76 77 62 54 54 48 47 54 56 53 49 45 46 45 41 44 55 68 70 61 61 69 60 48 55 58 51 49 49 48 50 48 44 45 44 40 40 38 37 38 32 30 48 69 73 63 50 43 37 33 37 35 26 24 24 17 16 18 16 17 22 19 13 14 15 15 14 17
88 87 87 86 85 91 97 96 95 94 87 84 89 91 79 65 63 64 61 71 82 69 50 50 56 56 56 54 50 50 51 52 50 45 40 40 51 57 52 59 75 69 55 58 60 54 55 58 63 67 63 61 67 65 63 63 51 39 39 37 32 43 64 77 71 52 38 33 36 46 48 37 29 23 17 17 18 16 17 19 19 16 14 13 14 16 20
88 89 90 90 88 88 94 98 95 91 89 89 88 89 84 73 68 65 58 65 83 74 48 43 53 54 49 48 49 51 56 56 51 49 49 44 40 40 40 54 77 77 66 68 64 53 54 62 70 74 69 69 79 84 86 86 67 44 38 36 33 38 45 55 60 51 39 35 37 42 43 34 24 18 17 17 15 16 20 20 18 17 14 12 15 18 19
86 89 92 92 89 87 92 98 96 89 89 92 90 88 87 81 72 66 60 63 76 71 50 42 48 48 45 51 56 53 51 52 49 51 55 47 38 39 39 42 57 63 63 74 73 58 58 63 66 73 74 67 70 77 83 87 81 65 47 37 45 57 52 49 57 55 44 40 42 45 46 41 31 20 14 13 13 17 23 24 23 20 14 15 19 19 21
86 87 90 90 88 88 92 97 97 91 90 93 91 86 85 81 75 70 63 60 65 62 45 37 44 49 50 56 60 54 48 49 49 50 51 42 37 46 46 40 46 49 50 71 85 74 67 65 61 67 69 57 58 71 74 77 86 85 66 54 65 75 65 54 54 48 41 45 57 63 59 53 48 34 14 11 19 23 23 29 35 32 23 19 20 19 25
86 85 88 90 88 89 95 97 96 93 93 95 94 86 80 78 77 73 64 57 59 58 46 42 50 55 52 51 53 50 46 48 50 50 53 51 44 44 44 42 47 50 46 59 74 66 59 60 55 58 63 55 54 66 71 73 85 89 77 68 72 73 59 46 41 42 45 49 60 72 67 54 51 42 21 15 27 32 31 37 44 42 30 21 21 25 32
87 85 88 91 88 90 97 99 97 96 95 95 94 86 81 79 77 74 68 61 64 67 59 52 53 52 48 48 51 52 50 50 51 50 54 56 47 46 57 58 56 59 58 60 65 61 61 66 60 54 62 65 59 58 62 70 78 77 72 71 75 73 63 52 51 56 56 46 52 70 67 46 40 39 26 22 31 38 44 49 48 41 31 25 30 38 43
88 84 86 90 89 91 99 100 99 99 98 96 95 91 85 81 75 71 67 64 70 75 64 51 47 46 47 47 47 50 51 51 51 49 51 52 45 50 71 74 64 68 72 66 65 66 68 73 68 59 62 70 67 61 63 69 70 67 64 65 72 76 72 70 72 73 62 46 49 65 61 44 42 45 37 35 43 46 48 50 46 41 38 37 40 45 47
88 85 86 89 90 94 100 100 99 99 98 97 96 92 87 83 77 73 68 60 60 62 56 49 49 49 50 50 48 48 48 46 45 44 48 54 50 48 63 71 64 65 69 65 66 72 73 73 73 69 68 71 69 69 69 64 60 64 64 63 71 78 76 76 79 78 72 63 63 75 75 61 56 57 48 42 45 46 45 51 55 53 49 49 51 50 52
88 87 87 89 93 98 100 97 96 97 97 97 97 93 91 86 79 76 74 62 51 48 47 47 50 49 47 45 44 46 47 45 44 42 43 53 54 47 54 63 59 55 60 64 70 76 76 73 72 72 73 70 68 74 75 58 48 58 66 66 70 73 72 74 78 77 77 76 73 78 78 61 49 49 45 41 45 45 43 51 60 57 53 58 62 57 53
86 88 89 91 96 99 95 91 93 96 95 94 95 95 94 90 83 82 80 65 51 53 57 54 51 49 44 35 31 35 39 42 44 43 42 50 57 55 53 53 51 54 59 59 59 64 67 67 66 70 75 72 65 71 79 66 51 54 60 60 66 69 67 70 75 74 77 83 83 83 79 63 51 47 41 40 48 49 44 48 53 52 56 67 71 60 48
86 88 90 93 98 98 94 92 93 95 95 94 94 94 93 89 82 80 76 62 52 61 73 70 57 46 37 28 24 27 30 32 35 40 43 47 51 56 55 48 47 55 58 54 54 61 65 64 62 64 71 72 68 71 80 77 65 60 58 56 60 63 61 68 82 84 80 82 83 82 75 64 60 61 52 43 46 47 43 45 47 47 53 57 55 48 43
85 87 90 94 97 98 97 95 93 93 94 93 92 93 93 89 82 77 74 64 53 56 68 70 57 41 32 30 30 30 32 32 30 33 40 43 44 48 50 47 47 50 52 51 55 61 63 61 59 61 68 73 72 68 71 77 80 74 64 56 55 57 60 72 85 86 79 75 76 77 74 64 60 63 58 47 44 43 42 40 39 41 46 47 43 40 40
82 84 90 95 96 96 97 97 94 94 96 95 93 93 91 87 82 78 73 65 58 60 63 61 52 41 35 36 39 37 35 33 31 31 35 39 39 40 41 44 48 50 52 55 56 55 56 58 59 60 63 66 64 55 55 70 82 79 69 62 60 63 70 77 80 80 81 82 80 78 82 78 67 60 56 51 47 46 45 44 41 39 40 42 44 45 41
81 86 91 94 95 96 98 98 96 95 96 96 95 95 91 83 77 75 72 68 68 69 66 59 55 51 48 44 40 34 29 28 29 31 34 36 37 38 41 46 49 52 58 62 60 57 57 58 58 53 50 55 59 53 50 60 69 70 71 71 66 66 74 81 83 84 83 80 77 78 84 84 71 60 58 56 49 44 45 46 45 43 40 38 40 43 43
82 86 89 92 95 96 98 99 97 94 94 96 95 89 81 73 70 72 73 75 76 72 69 68 63 53 47 43 36 29 27 28 28 30 34 36 36 36 39 42 44 50 57 59 61 62 59 53 50 45 42 50 59 56 51 55 61 65 70 71 67 66 70 75 82 86 81 73 72 76 82 83 73 60 58 58 51 44 45 45 43 42 42 41 40 41 43
82 85 90 94 97 98 98 97 93 89 91 97 94 78 62 61 73 78 73 74 79 76 76 84 79 60 48 47 42 34 28 27 28 30 33 37 38 37 36 35 36 44 52 53 58 62 56 47 45 42 39 45 52 53 53 57 59 61 64 67 70 74 76 76 77 78 76 73 70 71 76 79 71 56 50 51 49 44 45 46 44 41 40 42 45 45 44
84 88 92 96 98 99 96 89 85 87 92 94 86 69 57 67 85 84 69 69 79 80 81 89 85 67 53 46 40 34 29 26 27 29 31 36 39 38 36 35 35 40 45 47 50 51 48 46 46 43 42 48 50 49 51 54 56 56 56 60 67 72 74 75 72 67 65 64 64 68 73 72 66 61 56 51 47 45 45 45 45 45 44 43 46 48 47
84 88 92 95 98 97 92 84 83 90 95 93 83 72 68 76 86 84 73 70 73 75 83 91 85 68 54 43 32 28 27 26 27 28 32 38 42 42 41 39 37 38 42 46 49 48 45 45 43 40 43 51 52 48 45 47 54 58 56 58 62 60 56 56 57 59 62 59 59 73 85 78 69 70 67 55 46 45 47 43 40 42 44 43 44 48 49
87 93 96 97 97 94 90 87 88 91 93 90 81 71 65 64 66 71 75 73 67 68 81 92 88 72 57 44 35 31 29 28 29 32 35 40 45 49 47 42 39 41 44 48 51 47 41 40 41 40 39 42 46 46 42 46 59 64 59 57 56 46 39 40 40 46 57 58 54 66 81 79 68 63 61 53 45 41 41 39 37 37 40 43 45 47 47
92 95 95 95 94 89 83 82 87 89 88 84 75 66 62 59 55 56 63 68 70 75 82 86 83 72 55 42 38 36 33 31 32 35 36 39 45 48 43 39 44 47 44 44 46 42 36 37 41 42 39 37 41 43 43 53 68 67 56 54 52 40 36 39 36 37 49 55 51 52 60 61 56 53 53 53 48 41 36 36 38 39 42 44 46 47 46
95 94 94 92 84 77 76 82 88 87 79 73 71 69 68 66 62 61 67 73 80 86 83 73 68 65 57 49 44 36 30 31 33 33 34 38 42 42 38 39 42 42 42 45 43 38 43 54 55 46 40 38 39 40 41 50 59 52 43 47 50 43 44 50 48 45 48 48 47 48 49 49 52 54 52 51 50 46 41 37 37 41 46 46 45 45 46
94 93 89 77 69 73 81 84 84 79 71 70 74 74 70 68 69 74 80 83 87 91 84 71 64 61 57 53 47 35 30 34 35 33 35 36 36 39 44 47 43 40 46 52 43 36 51 68 60 43 35 35 39 40 38 40 43 39 36 40 41 40 45 51 49 49 50 48 49 50 47 49 60 66 61 57 55 50 44 40 39 41 46 49 48 46 46
92 88 78 68 70 78 74 64 64 70 71 69 71 70 69 70 74 81 89 91 92 92 88 83 77 65 53 50 46 36 33 37 36 35 38 36 30 32 38 40 36 35 38 40 37 38 50 54 42 31 31 34 37 38 33 32 36 37 36 38 38 38 42 46 45 47 51 52 54 54 47 48 60 66 65 67 66 55 46 45 44 43 44 48 49 47 46
86 80 77 76 74 64 54 53 63 69 65 60 59 62 66 69 69 73 81 89 90 88 86 86 83 67 53 52 48 37 36 43 42 36 37 36 30 29 29 25 25 27 26 25 27 32 34 30 25 26 30 32 35 36 32 30 35 36 35 38 41 40 42 45 48 52 55 56 59 59 55 55 60 63 64 72 76 69 57 49 43 42 47 51 49 46 46
82 80 82 81 68 52 51 61 64 52 43 45 52 55 58 61 61 62 67 74 78 79 78 77 72 60 52 53 48 36 35 44 46 42 41 40 36 33 29 23 23 24 23 22 24 26 25 24 24 26 29 35 44 47 41 33 34 35 35 38 41 42 43 45 47 51 56 59 61 61 61 61 64 66 66 69 74 74 68 57 50 51 56 59 57 53 50
85 82 75 66 56 52 56 59 54 44 39 44 49 49 48 52 55 54 54 57 59 61 62 61 55 48 44 49 50 43 39 43 46 47 47 43 35 32 31 27 22 21 20 21 22 23 23 22 20 22 31 44 56 61 52 37 32 36 38 37 38 40 40 41 42 44 47 50 51 52 53 55 57 63 69 73 75 77 76 74 72 70 65 61 60 59 55
89 84 73 65 64 63 56 49 48 49 45 43 45 47 47 48 46 41 42 46 46 43 43 46 47 46 45 47 49 47 43 43 43 43 44 41 33 31 34 31 23 21 23 20 16 16 19 19 19 23 33 44 52 54 48 37 34 38 40 38 37 37 35 35 37 38 40 43 45 46 47 48 49 53 62 70 76 82 85 84 80 75 68 64 62 58 54
83 77 70 66 63 57 49 45 46 48 46 45 48 50 46 43 40 37 38 41 39 35 36 41 44 43 42 41 40 41 46 50 45 37 38 39 32 28 31 29 23 24 25 17 12 15 18 17 19 28 40 51 54 47 38 35 37 40 41 40 38 37 35 34 35 36 36 40 43 43 43 45 45 45 48 53 59 68 76 77 72 67 64 62 58 53 52
71 66 65 64 56 49 48 48 45 44 47 51 55 56 50 42 39 37 34 32 30 30 33 36 35 34 36 37 36 38 47 53 47 37 36 37 31 28 32 31 27 26 23 14 12 17 17 16 24 38 53 64 63 50 38 37 39 40 40 40 36 34 34 33 34 35 35 36 39 40 41 42 43 43 43 44 45 49 54 58 59 58 56 54 51 51 53
71 65 62 60 53 49 52 50 44 47 56 56 53 55 52 43 37 36 34 33 33 33 31 29 29 32 34 35 34 35 40 43 42 39 37 34 30 32 36 33 27 23 19 15 16 18 14 15 27 41 51 60 61 48 37 37 41 41 40 38 33 32 33 32 31 32 36 37 38 38 37 38 40 42 43 44 45 45 47 48 50 52 51 50 50 52 54
76 66 61 60 55 50 50 49 46 49 55 50 43 41 39 34 32 33 33 32 32 29 26 24 27 31 33 31 31 34 36 36 38 39 37 34 35 38 35 30 25 23 22 21 21 18 14 17 26 37 50 65 68 54 38 35 40 41 40 38 33 31 33 33 33 34 37 39 37 35 35 38 41 43 44 45 45 45 46 47 49 51 51 49 48 51 54
73 57 54 62 61 50 45 48 49 47 43 37 33 31 30 28 28 29 28 26 24 24 25 25 26 30 31 28 29 32 33 34 37 37 33 36 43 41 32 28 29 29 28 27 24 20 20 24 32 40 50 57 55 44 35 35 37 37 36 37 36 32 30 34 37 39 40 40 38 37 39 43 45 45 44 45 45 45 47 49 49 50 51 50 49 51 54
65 48 44 55 57 46 40 43 42 36 31 28 27 25 24 24 24 23 23 23 23 24 26 26 27 28 28 27 29 32 31 32 38 37 33 37 43 38 31 34 39 35 31 32 31 29 31 35 42 52 57 54 45 38 35 35 36 36 35 35 34 31 30 32 36 40 41 41 41 41 43 45 46 46 47 48 49 49 51 52 52 52 53 53 52 51 52
56 46 45 52 53 45 38 35 31 26 24 24 23 21 21 23 23 22 22 23 25 27 29 29 30 31 29 28 31 34 32 33 38 37 32 35 41 41 41 46 45 35 31 34 37 39 42 43 47 55 60 60 58 54 47 39 36 37 39 38 33 30 31 32 34 38 42 41 40 42 45 45 45 46 47 49 51 51 51 53 56 56 56 56 56 56 56
53 48 47 48 45 38 31 29 28 27 25 23 22 21 22 24 23 22 22 23 24 26 27 27 30 34 33 31 32 35 34 35 38 36 33 37 43 47 48 48 43 38 40 45 49 51 49 44 46 53 58 62 68 71 68 58 47 39 37 38 34 30 30 32 34 37 42 42 40 41 45 47 48 47 46 47 51 53 52 52 54 56 57 58 58 60 61
54 51 49 49 47 41 33 30 31 31 27 23 21 22 23 23 23 23 24 25 25 26 27 27 28 31 32 34 40 43 40 34 33 36 41 44 44 44 47 49 51 54 58 59 62 62 52 40 39 47 52 56 62 68 71 72 66 51 38 35 33 28 27 30 33 37 42 45 44 42 41 45 49 49 48 49 53 54 52 51 51 53 57 59 60 62 65
53 50 48 46 45 42 37 34 35 35 31 27 24 23 22 23 24 24 24 24 25 27 29 29 28 29 34 42 48 48 40 33 33 39 44 43 41 46 57 65 67 67 66 65 67 65 50 37 38 45 47 50 56 59 60 66 72 65 49 35 28 26 28 32 35 38 42 47 47 43 41 46 53 53 49 47 48 48 51 53 52 50 54 60 62 64 67
52 51 47 40 36 36 35 34 34 33 30 26 24 23 22 23 23 22 22 24 26 28 29 28 27 31 37 42 42 39 37 38 42 43 42 41 44 54 64 67 63 59 60 68 73 66 49 38 42 49 50 50 54 57 56 59 68 71 61 43 29 27 31 33 33 35 38 42 45 46 46 50 55 53 47 43 42 42 47 55 54 50 50 56 60 63 67
Wind_Speed
27 29 29 27 28 31 31 32 37 38 34 29 24 18 8 4 4 3 13 14 8 5 7 5 4 5 8 10 11 10 7 8 12 13 9 6 3 4 4 5 6 6 5 5 5 4 6 5 4 6 6 6 8 9 12 14 11 7 5 3 3 6 2 5 6 7 9 12 14 17 20 18 16 13 12 11 9 10 9 6 6 7 9 11 8 5 7
25 26 28 29 30 32 32 33 37 35 30 28 23 13 5 6 7 3 11 13 8 5 6 6 7 8 10 13 13 10 7 8 12 13 11 7 3 3 3 3 5 5 4 6 6 3 4 4 5 8 8 5 8 11 11 12 10 6 4 3 1 1 0 2 4 5 7 9 11 13 15 14 10 9 13 13 12 14 10 4 5 7 11 13 8 5 7
23 25 28 30 31 32 33 35 38 33 26 26 20 9 5 7 7 2 7 11 8 5 4 6 7 8 12 14 15 12 8 9 11 12 10 6 5 5 5 5 7 6 3 3 5 5 5 5 4 5 7 7 9 12 11 10 10 8 7 9 5 2 1 3 5 6 6 7 8 9 10 9 7 10 16 16 15 15 9 3 3 5 10 14 9 6 6
22 24 28 31 30 31 32 34 38 31 23 26 23 11 6 5 4 4 1 5 5 5 5 6 7 7 10 10 11 13 11 10 11 9 5 4 7 8 7 6 6 6 4 2 3 5 7 8 6 5 6 8 9 10 9 10 13 10 6 7 5 3 3 7 8 7 8 9 12 13 12 10 10 14 18 16 15 16 7 2 4 5 7 8 4 8 11
21 23 26 29 29 30 30 33 38 31 21 26 24 10 6 4 4 6 6 3 5 4 4 4 5 8 11 7 8 12 13 12 11 6 2 2 7 8 6 5 5 7 8 5 3 4 6 9 9 8 9 8 11 12 8 11 11 6 3 3 3 2 3 7 9 8 7 9 16 19 17 16 15 16 18 17 17 15 5 1 6 7 3 2 7 11 11
21 22 24 26 27 28 30 33 37 31 21 24 21 7 2 4 4 5 6 4 6 6 8 8 10 13 12 7 8 12 14 14 11 6 4 5 6 5 4 5 7 11 10 5 3 3 4 7 8 7 7 8 11 11 9 11 8 4 4 5 2 1 4 4 6 9 10 12 18 21 19 17 16 15 16 18 18 13 6 6 9 5 1 5 9 9 7
20 21 22 23 24 26 28 31 35 31 24 22 16 5 4 5 4 5 7 5 8 10 12 13 13 13 9 6 9 13 15 16 13 9 9 8 3 1 5 9 8 11 11 6 3 2 2 4 5 4 5 7 9 7 7 9 8 6 6 3 5 1 3 5 8 9 10 13 15 20 20 17 15 15 15 16 17 15 11 7 4 3 8 9 10 9 6
19 20 21 21 22 24 26 29 33 31 27 21 12 6 6 6 4 5 7 7 9 12 12 11 10 9 7 8 12 13 14 16 15 11 10 9 3 2 7 14 13 12 11 6 4 4 1 3 3 3 3 5 7 5 5 6 7 7 6 3 5 1 4 6 8 7 7 12 12 14 20 18 14 14 15 15 15 15 12 4 3 7 9 10 11 9 6
18 19 20 20 20 22 23 26 30 30 27 20 10 7 9 8 7 7 7 7 8 9 9 9 8 7 7 9 12 13 14 16 15 12 9 9 8 5 7 12 12 12 9 5 3 5 3 4 5 5 4 4 5 3 4 6 5 7 5 3 3 1 4 5 6 5 5 7 11 14 18 19 14 13 16 16 13 11 9 6 3 5 7 8 9 7 4
17 18 20 20 20 20 20 23 27 28 25 18 10 8 11 11 8 7 6 7 7 9 9 8 7 7 8 11 13 13 15 17 15 10 6 8 10 10 7 8 8 8 9 7 5 4 2 3 5 6 5 6 5 3 8 10 4 4 4 1 1 1 3 4 5 4 4 8 11 14 14 15 10 9 14 17 14 12 8 6 5 6 5 4 5 5 5
16 17 19 19 19 19 18 19 23 25 22 17 12 10 12 11 8 6 6 7 7 8 8 7 7 8 12 16 15 13 17 18 15 9 8 11 12 11 10 9 5 4 7 6 5 3 2 4 4 4 4 6 6 4 8 9 4 3 3 2 2 2 1 4 4 2 4 8 10 10 9 9 7 8 13 16 15 14 11 6 6 8 5 4 8 6 4
15 16 18 18 19 19 17 16 19 22 20 17 14 12 11 11 9 6 5 6 8 8 8 8 9 11 15 17 15 15 17 17 15 12 9 11 12 10 9 8 6 4 5 6 6 3 2 2 1 3 3 4 5 6 9 8 4 5 7 4 2 2 1 3 4 3 3 3 6 8 7 7 8 10 13 15 13 13 13 10 10 11 7 5 10 11 8
15 16 17 18 19 19 16 14 16 19 18 16 14 13 11 11 9 5 4 6 7 7 9 11 13 14 17 18 16 17 17 16 16 13 7 5 9 13 10 3 2 5 5 5 7 5 1 1 2 0 2 2 4 6 9 10 8 9 10 6 4 2 1 2 4 4 3 2 5 6 6 8 10 11 12 12 11 12 12 10 11 11 7 5 5 7 10
15 15 16 18 19 19 17 14 14 17 18 16 13 14 13 10 8 6 5 4 7 9 10 10 11 15 18 18 17 16 15 15 15 14 11 7 5 10 8 4 1 5 5 4 5 4 3 3 3 2 2 2 3 4 6 8 9 11 12 10 7 3 1 1 4 4 3 5 5 2 2 7 9 9 11 10 9 11 9 6 7 9 9 10 8 4 6
15 15 15 17 19 19 18 15 13 14 16 16 14 14 14 10 8 8 5 4 8 9 6 6 10 16 18 16 15 14 11 12 13 12 14 13 5 5 8 8 4 4 5 3 3 3 3 2 3 2 2 2 2 4 4 6 7 8 11 11 10 6 4 3 5 5 5 5 5 2 2 6 6 8 11 10 8 9 8 5 5 9 12 12 7 4 3
14 14 14 16 18 18 17 16 13 12 13 15 14 14 13 8 6 8 7 4 5 6 6 10 14 15 14 12 12 12 9 9 12 10 11 14 11 11 14 8 7 2 3 2 2 1 1 1 2 2 2 2 2 2 3 5 6 6 7 10 11 10 8 6 6 5 5 4 5 4 3 5 6 8 12 12 9 9 8 6 6 9 12 7 5 4 2
14 14 15 16 17 17 17 16 12 11 12 14 13 14 15 8 3 8 8 4 5 8 11 14 14 10 9 9 9 10 8 8 10 9 9 12 13 14 15 8 4 2 1 2 3 2 1 1 2 2 2 3 3 2 1 3 5 6 5 6 6 5 4 4 5 7 7 5 3 2 1 2 4 8 12 13 9 7 9 9 5 5 6 7 6 7 3
14 14 15 16 16 16 16 15 12 10 11 13 13 15 16 10 5 7 8 6 6 8 10 13 14 10 8 9 9 9 9 9 9 8 8 9 10 13 14 9 6 4 2 3 1 1 2 2 2 3 3 3 4 3 2 3 4 5 6 3 4 2 2 5 7 7 6 3 3 1 2 3 5 7 6 10 7 4 8 7 1 3 2 6 6 6 4
14 14 14 15 16 16 15 14 13 12 12 13 13 14 15 13 8 7 8 7 6 8 12 17 15 11 10 10 10 9 9 10 9 8 8 7 9 15 14 6 6 8 6 4 1 1 2 3 2 2 4 4 5 4 3 3 2 4 5 1 4 3 3 5 6 5 4 2 5 2 2 3 7 9 3 7 5 4 4 2 3 4 2 4 4 4 7
14 14 14 15 15 15 14 13 12 13 14 13 13 14 17 16 10 7 7 7 7 10 14 15 14 13 14 12 11 10 9 9 8 7 7 7 10 14 10 4 6 8 7 6 5 4 4 5 4 2 3 4 5 5 4 3 2 4 4 1 1 1 1 1 2 2 2 3 5 3 2 3 6 8 5 5 3 2 3 1 2 2 1 2 5 8 7
14 14 14 14 15 15 14 12 12 15 16 13 12 14 17 17 12 8 9 9 7 8 10 12 16 20 21 18 17 16 14 12 10 8 8 8 8 8 6 7 8 6 5 6 6 4 4 5 4 4 2 2 3 5 6 3 1 4 5 2 2 3 2 1 2 2 2 3 5 2 1 1 1 4 2 5 3 2 3 2 2 2 2 2 7 9 7
14 14 14 14 14 14 14 13 14 16 16 13 11 13 15 16 16 14 12 13 12 12 17 23 26 29 30 30 28 25 21 18 15 11 8 7 7 6 4 6 7 4 3 5 5 4 4 4 4 5 4 3 3 6 7 4 2 5 5 3 4 5 3 3 2 2 2 2 4 3 5 1 3 2 4 10 8 4 4 5 5 4 4 6 7 7 7
14 14 14 13 14 14 14 15 16 15 13 11 11 12 14 16 16 15 15 16 15 16 21 26 25 24 26 27 26 25 24 21 17 14 9 6 7 7 4 4 7 6 4 5 5 5 6 5 5 6 5 4 4 5 6 5 4 5 3 1 2 4 6 4 2 3 3 4 7 7 5 2 7 5 6 10 9 6 6 8 6 5 6 8 5 4 6
13 13 13 13 14 14 14 16 16 13 11 11 12 14 15 16 17 17 16 13 9 10 13 13 11 11 14 16 15 14 18 20 18 15 11 7 6 6 5 5 7 6 6 7 6 5 5 4 4 4 4 4 5 4 4 4 4 4 3 1 2 2 4 4 4 6 4 3 8 10 6 5 9 7 8 11 9 6 7 7 7 7 9 7 2 1 6
13 13 12 13 14 14 14 15 14 13 13 14 14 14 14 15 15 15 13 10 7 7 8 8 9 14 17 19 18 13 12 13 13 12 11 9 7 7 8 9 10 9 8 8 7 5 5 5 4 5 5 4 3 3 3 2 4 6 5 3 2 3 3 3 4 7 3 4 6 9 4 8 13 8 5 9 9 8 9 8 7 8 9 8 5 5 8
12 12 12 13 14 13 14 14 15 15 16 16 15 14 14 15 16 15 14 12 9 6 6 7 10 15 19 21 21 18 15 13 11 8 10 11 11 11 11 9 10 10 8 7 6 5 5 5 5 6 6 2 2 4 2 1 3 7 5 4 5 5 4 1 2 4 3 4 6 7 3 9 12 9 6 9 9 9 10 10 10 10 10 9 7 7 9
12 12 12 13 13 13 13 15 16 16 16 16 15 14 14 16 17 14 11 9 7 5 5 6 8 15 21 24 25 20 13 11 11 10 10 11 12 14 13 7 6 8 7 6 6 5 4 5 5 5 5 3 3 5 3 0 2 4 3 4 6 5 4 2 2 2 3 3 5 6 3 3 6 8 10 10 9 9 10 11 11 11 10 10 10 9 9
12 12 12 13 13 13 14 15 16 15 14 14 15 15 17 18 18 12 6 5 5 6 7 8 10 16 19 20 21 18 12 10 10 9 10 11 13 14 11 5 3 5 5 5 5 5 4 5 5 5 4 4 4 5 4 3 1 1 2 4 5 2 2 2 1 1 2 2 3 4 3 2 4 8 9 9 8 8 10 10 10 10 10 10 11 11 11
11 12 12 12 13 13 14 16 17 15 14 13 14 16 17 16 14 8 2 1 5 7 7 8 10 11 12 14 18 18 13 10 9 9 9 10 12 12 8 5 3 3 5 5 5 5 5 5 5 5 4 4 4 4 5 4 2 1 3 5 5 3 1 4 5 3 1 3 2 3 4 2 3 4 6 6 7 7 9 9 8 9 9 9 10 11 10
11 11 11 12 12 13 15 18 17 13 11 12 13 12 9 4 2 2 1 0 3 6 6 6 6 7 9 11 13 13 9 7 8 8 8 9 9 9 8 5 2 3 5 4 3 4 6 4 5 6 5 3 3 4 4 4 3 2 3 3 3 2 2 2 4 4 2 1 1 3 5 2 5 3 6 6 4 5 7 8 7 8 8 8 9 10 10
11 11 11 11 12 14 17 18 14 10 10 10 9 7 3 2 4 2 1 2 4 5 4 4 6 7 7 8 9 10 10 10 7 6 7 8 8 8 7 6 4 3 5 5 4 5 5 5 5 7 5 1 0 3 4 4 4 3 3 4 3 3 4 5 5 4 2 2 2 5 6 3 4 4 5 4 4 4 6 6 6 7 8 9 9 9 9
11 11 11 12 13 16 18 16 11 8 9 10 10 10 11 9 5 2 1 4 6 6 4 4 6 5 4 5 8 10 11 9 6 5 6 6 6 6 6 5 4 3 4 4 4 4 4 5 5 6 3 2 2 3 5 3 3 4 4 4 4 4 1 4 5 4 3 3 4 6 4 4 2 1 1 2 1 2 2 3 5 6 7 9 10 10 11
10 11 12 12 14 17 18 15 12 12 13 15 18 19 18 16 13 11 10 8 8 6 4 3 5 5 4 6 9 8 6 5 5 4 4 4 2 3 4 5 4 4 3 3 3 3 4 4 4 5 3 1 2 4 5 3 3 3 4 5 6 4 2 1 2 4 5 4 5 6 3 2 2 3 3 3 2 1 1 1 4 5 6 7 8 10 10
10 11 12 13 16 19 18 15 13 12 13 13 14 11 9 7 7 10 11 8 6 5 3 3 4 5 6 7 6 2 3 5 4 3 3 2 3 3 5 3 3 3 4 4 4 4 4 4 5 4 3 2 3 4 3 5 4 6 6 4 5 5 4 3 2 3 6 5 4 6 5 4 4 3 2 1 2 2 1 1 4 5 4 5 7 8 9
10 11 12 14 17 18 16 12 10 10 11 11 9 4 2 2 2 3 7 7 5 3 2 3 5 5 6 7 4 3 6 7 6 4 4 2 4 4 5 3 3 3 2 2 4 4 2 3 4 4 3 2 3 2 2 3 4 5 2 3 4 5 5 4 4 4 3 3 3 3 1 1 2 2 3 2 3 4 3 2 5 5 3 4 6 7 8
10 11 13 14 14 13 11 9 9 9 7 6 4 2 1 2 3 3 7 8 7 4 3 3 5 5 6 6 4 5 7 7 5 4 4 3 3 2 1 3 4 2 0 2 5 4 1 2 3 3 3 2 2 3 3 4 4 6 7 6 5 5 5 4 4 5 5 5 4 3 2 4 5 3 1 1 3 4 2 1 4 6 5 5 6 6 7
9 11 13 12 9 8 9 9 10 9 6 4 4 4 4 4 4 6 7 7 7 6 3 4 5 6 6 6 4 5 6 6 5 4 4 3 3 2 2 4 4 1 1 4 5 2 3 4 3 4 4 2 1 1 2 3 5 7 7 7 7 7 6 5 5 6 6 5 6 5 4 4 5 4 5 6 7 6 2 2 2 3 6 6 5 5 5
9 10 11 10 7 6 5 4 5 5 3 5 6 5 4 3 4 4 4 3 4 5 4 4 6 7 6 6 6 6 6 5 5 5 3 3 4 3 3 4 2 1 3 5 1 1 3 4 3 4 4 1 2 2 5 6 6 5 6 7 7 7 7 7 8 8 6 5 5 6 6 6 6 5 5 6 8 8 5 3 2 4 5 5 5 5 5
7 7 8 9 7 3 1 1 2 1 3 4 4 4 3 3 3 3 3 3 3 4 4 5 6 6 6 6 6 5 5 5 5 5 4 4 4 3 3 3 1 1 5 5 1 0 4 4 2 4 2 5 6 5 7 5 4 5 6 6 6 7 8 7 8 7 6 4 4 5 5 5 6 6 5 5 6 7 8 7 4 6 6 5 5 5 6
5 6 6 6 3 2 2 2 0 3 3 3 4 3 2 3 3 2 2 3 3 4 4 4 5 5 6 7 6 4 4 4 5 5 5 4 3 3 4 4 2 3 6 4 0 1 4 4 2 3 1 6 6 2 5 2 4 5 6 6 7 7 6 6 7 7 6 5 5 6 6 6 6 6 5 4 4 5 6 7 7 6 5 3 4 5 5
4 5 5 5 7 6 4 3 2 3 3 3 3 3 3 3 3 3 2 4 4 2 3 3 4 3 4 5 6 5 4 4 4 4 4 3 2 2 4 4 3 4 5 3 0 1 4 4 4 2 2 6 5 4 4 1 4 5 5 6 6 6 6 6 7 7 7 6 5 5 6 7 6 6 5 5 4 4 3 3 2 2 3 3 3 3 4
4 6 8 11 12 11 8 5 4 4 3 2 2 3 3 3 3 3 3 3 4 2 1 2 3 4 4 4 5 4 3 3 3 4 4 3 2 3 4 4 3 4 5 3 2 2 4 4 3 2 5 6 1 2 2 3 4 5 5 5 5 6 7 8 8 8 8 7 5 4 5 5 5 5 5 4 3 2 1 2 2 1 2 2 2 3 5
5 7 8 8 8 6 5 4 3 3 2 2 2 3 3 3 4 4 3 2 2 2 1 1 2 3 3 3 3 3 2 2 2 3 3 3 2 3 4 4 4 4 4 3 3 4 5 5 2 2 4 2 3 2 2 3 3 4 4 3 3 5 6 5 5 6 7 7 7 6 6 6 6 6 6 6 4 2 2 3 5 6 6 4 3 5 7
2 4 4 4 3 3 3 3 2 2 3 3 3 3 4 4 4 4 2 0 1 2 2 2 3 4 3 3 3 3 2 3 2 2 3 3 3 3 3 4 3 4 4 3 3 4 4 3 2 4 5 1 3 2 2 2 2 3 3 3 3 4 5 5 5 6 6 6 7 6 5 6 6 6 7 9 8 6 4 4 6 7 6 4 3 4 5
3 4 3 3 2 2 1 2 2 2 3 4 4 4 5 4 2 1 1 1 2 4 5 4 4 5 5 4 3 2 2 2 2 3 3 3 3 3 4 3 3 4 5 4 4 5 4 1 4 6 6 2 2 3 2 1 2 3 2 2 2 3 4 5 6 6 6 5 5 5 5 6 6 6 6 7 7 7 6 6 6 6 7 7 5 3 4
4 3 3 3 3 2 2 3 3 3 4 4 5 5 5 4 4 3 2 1 3 5 5 5 5 6 6 4 3 2 2 3 3 3 3 3 3 3 3 3 4 4 4 5 5 5 3 4 6 7 4 1 3 2 1 1 2 2 1 2 2 2 3 4 5 5 5 5 6 6 6 6 6 6 6 6 6 6 7 7 7 6 6 7 6 4 3
4 3 3 3 3 3 4 4 4 4 4 4 4 4 4 4 4 3 3 3 4 5 4 5 5 6 5 4 3 3 3 3 3 4 3 3 4 3 2 3 4 4 4 5 5 3 4 6 8 9 9 8 7 4 2 1 1 2 3 2 2 3 3 3 3 3 3 4 5 5 5 5 5 5 5 5 5 5 6 6 7 6 5 6 6 4 3
3 3 3 3 3 3 5 5 5 6 6 6 5 4 4 4 4 4 3 2 3 3 4 5 5 5 5 4 3 4 4 3 3 4 3 3 3 3 2 2 4 4 4 4 3 4 6 6 7 8 8 9 10 10 7 4 2 2 3 3 4 4 3 3 3 3 3 4 4 3 3 4 5 4 3 3 3 4 4 4 4 4 4 4 5 4 4
4 2 3 3 3 3 5 5 5 5 5 5 4 4 3 4 5 4 2 2 3 4 4 4 4 5 4 3 4 4 4 3 3 3 3 3 3 2 2 4 5 3 2 4 5 5 5 5 6 7 8 8 8 8 9 8 6 4 2 3 5 4 3 2 1 2 2 2 4 3 3 3 4 4 4 2 2 3 4 4 3 3 3 3 4 4 4
5 3 3 4 4 5 5 5 5 5 5 4 4 4 3 4 3 1 2 2 3 4 4 4 4 4 3 3 4 4 4 3 3 3 4 4 4 3 4 5 4 3 4 5 5 6 6 5 6 7 8 8 7 6 6 7 9 8 4 3 5 4 3 3 3 2 2 1 3 3 1 1 2 4 4 3 1 1 1 2 3 2 3 3 4 3 3
4 4 5 6 6 6 6 5 5 6 5 4 4 4 3 3 2 1 2 2 3 4 4 4 4 3 3 3 4 3 3 2 3 4 4 4 3 2 3 4 4 4 5 6 6 7 7 6 7 8 8 8 8 8 6 4 7 9 7 5 6 6 6 6 4 2 1 0 3 4 2 1 1 2 4 3 2 2 1 1 2 1 2 3 3 3 2
4 4 4 5 6 7 6 6 6 6 6 5 5 4 4 4 3 3 3 4 4 4 4 4 4 4 4 3 3 3 3 3 3 5 4 3 1 1 2 3 4 4 3 3 5 7 7 6 7 8 9 8 9 10 8 5 6 8 10 9 6 5 5 3 2 2 1 2 2 2 1 4 3 2 4 3 3 3 1 1 2 4 1 3 4 4 3
Wind_Direction
344 347 348 347 346 345 345 345 351 356 357 353 342 330 310 280 315 146 168 184 198 249 296 303 295 309 323 324 320 320 314 306 315 327 332 321 271 211 244 274 280 290 301 301 307 316 293 264 243 273 267 222 228 219 196 213 233 219 215 247 101 115 156 244 213 186 195 202 210 228 238 229 211 209 217 213 204 212 218 194 179 202 201 192 191 187 198
344 348 349 348 347 346 345 346 351 357 0 353 339 325 325 308 298 210 176 190 218 275 303 324 327 323 324 326 325 325 325 322 328 336 339 340 328 273 262 262 279 292 307 305 304 311 289 263 246 270 281 252 238 235 205 201 228 235 178 145 214 196 184 246 209 182 189 195 204 222 233 230 218 212 223 222 203 203 218 203 176 206 208 195 181 184 193
344 348 351 351 349 347 346 348 353 356 360 356 341 314 312 304 280 240 176 191 219 274 300 312 311 315 324 324 323 328 331 331 339 340 334 342 351 318 285 276 284 275 254 279 296 289 267 267 284 282 286 288 266 243 209 189 223 233 146 137 186 220 97 228 217 183 181 186 196 214 217 219 238 229 218 213 199 201 218 215 195 208 201 199 192 172 152
343 349 354 355 353 351 348 349 354 356 357 353 339 304 289 307 298 338 309 203 244 269 260 270 273 302 331 323 314 328 331 328 341 346 334 350 350 323 294 285 296 299 299 299 284 269 250 256 280 286 275 278 269 248 207 192 223 230 143 138 197 207 191 224 226 201 187 180 190 208 206 202 221 220 211 208 202 204 218 256 230 216 200 209 176 129 127
343 348 355 358 357 354 349 350 355 356 353 348 336 294 253 302 319 350 348 302 298 295 275 285 293 316 332 318 297 321 328 326 341 350 284 309 338 322 289 284 326 336 330 318 272 253 250 255 262 269 270 268 275 275 238 205 218 215 160 202 233 292 252 232 226 230 236 206 194 203 208 202 206 211 208 207 205 203 202 259 232 226 215 165 112 116 132
342 345 351 356 357 354 351 353 356 357 354 346 335 303 281 333 324 6 7 307 294 320 322 315 311 313 315 298 294 320 330 331 337 335 294 303 337 335 282 276 316 328 327 321 286 244 233 251 254 262 267 261 271 272 234 210 202 174 222 227 159 358 295 266 237 248 269 247 208 202 209 205 198 204 207 206 205 197 189 231 242 245 48 102 117 118 137
340 342 345 351 353 352 352 354 357 1 360 349 341 343 11 349 319 359 12 330 294 296 296 291 293 303 305 308 324 332 334 334 334 329 322 317 328 353 274 277 298 311 309 305 286 260 213 220 231 260 277 270 271 256 216 215 203 190 233 216 113 104 286 288 266 250 264 267 230 201 202 205 198 199 204 203 202 196 194 223 244 117 86 88 99 91 78
337 340 341 345 349 350 352 354 359 5 2 355 2 35 22 360 339 341 343 322 293 285 288 290 294 314 338 342 339 334 330 334 333 323 317 312 303 195 261 286 302 301 292 291 269 261 253 159 202 262 281 272 269 244 212 222 210 206 217 137 89 4 261 262 261 244 251 272 264 221 203 203 201 200 201 201 203 200 189 171 86 111 110 102 105 99 76
332 337 339 341 344 348 351 354 359 7 4 356 5 33 16 356 343 337 321 307 300 293 294 294 301 335 357 342 335 334 332 334 329 318 309 302 308 304 268 282 303 303 303 327 300 248 211 163 203 237 250 265 271 255 260 267 231 212 208 119 89 291 283 266 248 248 239 239 266 255 214 197 202 207 200 197 209 217 188 150 115 120 129 133 126 109 91
327 333 337 338 340 344 349 352 358 7 9 2 359 9 7 353 340 338 312 289 294 294 290 296 320 345 346 338 339 335 329 332 332 327 310 295 318 341 318 278 281 303 326 352 348 308 272 226 218 212 222 244 247 270 290 291 278 221 216 143 130 223 329 298 242 239 230 206 235 251 217 192 200 210 197 193 207 223 201 159 139 136 148 161 126 90 94
324 331 335 336 337 341 346 350 357 5 8 3 352 349 360 353 332 326 313 292 295 303 308 330 351 344 338 343 344 332 328 334 336 329 315 317 341 359 332 307 300 311 314 320 332 327 264 244 247 241 233 234 228 244 274 279 287 271 247 177 140 145 329 296 277 248 229 205 205 216 206 192 191 193 200 200 198 206 211 195 165 167 173 133 120 122 112
321 327 331 333 336 339 342 346 354 2 4 355 338 337 357 354 329 320 326 307 299 308 322 331 331 333 340 346 341 328 330 336 335 331 329 333 342 338 319 333 5 348 308 314 339 349 195 182 226 266 271 262 253 256 265 265 252 249 250 228 187 168 158 292 291 263 252 225 179 182 191 196 184 178 196 204 194 198 217 218 192 183 179 144 138 141 128
318 323 327 330 334 337 338 342 350 355 357 353 337 329 340 345 331 326 331 308 296 306 317 314 317 332 343 342 333 329 334 338 337 339 346 346 329 318 319 9 11 326 347 0 349 349 2 59 62 255 277 291 276 268 271 271 255 244 252 248 228 233 310 303 273 257 266 234 195 194 183 182 186 180 187 198 195 199 214 215 199 192 185 189 188 143 123
313 319 324 326 330 335 335 337 345 349 350 351 337 316 319 336 342 333 328 310 297 300 302 304 318 334 337 330 325 329 339 342 339 340 345 349 313 299 322 57 142 305 353 8 331 350 36 19 16 4 340 337 304 290 291 291 281 264 260 254 238 219 106 323 269 258 248 211 190 170 149 176 190 186 181 188 194 195 204 214 207 203 197 204 214 178 117
310 314 319 320 323 331 333 332 338 345 346 346 337 317 316 334 340 321 316 317 304 298 305 328 333 332 328 323 328 338 345 344 340 336 336 340 335 313 354 54 116 302 340 352 318 8 56 10 350 329 330 4 327 304 316 313 293 268 255 250 243 219 182 212 241 239 243 220 177 142 174 179 181 175 172 182 192 184 190 222 226 214 212 209 191 144 98
310 311 315 319 321 327 330 329 334 343 343 342 337 324 319 327 331 316 313 309 297 293 312 326 325 322 318 318 333 345 346 338 337 339 334 336 349 358 3 43 129 211 323 353 324 351 102 6 335 310 313 346 329 303 317 313 302 289 259 241 235 229 217 225 247 251 252 226 180 172 172 161 175 180 173 180 190 170 168 203 227 215 209 185 139 164 193
309 309 311 318 322 324 326 328 332 339 339 337 335 323 313 304 307 321 315 297 286 278 279 300 317 326 323 323 335 340 338 332 333 337 332 332 348 356 350 5 91 147 134 51 358 340 324 302 311 316 306 299 300 295 270 293 305 311 289 239 220 239 240 225 245 256 250 225 176 177 208 156 206 207 177 165 173 180 182 191 209 219 190 133 145 207 204
305 307 309 315 319 321 325 328 330 330 330 333 331 318 307 297 286 306 307 297 289 276 277 308 326 323 306 310 315 315 321 327 326 327 323 325 349 352 338 343 14 15 50 81 44 299 304 311 325 338 325 322 333 330 306 303 298 289 284 240 173 185 246 219 226 250 255 211 120 90 287 323 311 268 192 140 134 188 193 181 150 355 96 133 180 202 131
303 306 307 311 316 319 321 325 328 327 324 327 328 316 308 306 294 285 300 307 288 276 294 312 313 297 290 302 304 303 313 317 315 325 330 333 347 341 329 338 13 357 360 21 1 301 331 343 4 341 320 342 355 337 324 342 322 283 292 257 163 177 222 213 216 247 270 183 118 104 279 308 313 291 215 137 145 193 179 154 357 360 79 165 183 126 105
301 304 304 307 311 315 317 317 323 327 323 321 322 315 307 305 292 260 267 295 294 287 290 289 284 289 300 303 296 295 305 311 315 327 327 323 334 335 334 360 2 350 1 5 352 355 352 343 357 356 328 344 344 323 331 10 351 314 326 8 120 60 336 256 249 278 268 178 137 134 192 205 262 264 206 156 181 173 112 80 347 348 305 177 116 94 89
297 301 300 303 307 311 312 310 315 324 321 313 311 309 305 308 309 284 259 266 284 291 286 285 292 298 296 288 282 282 283 288 300 317 318 313 323 332 339 346 344 351 10 351 339 354 351 332 336 346 338 329 318 322 336 351 5 359 2 26 44 33 27 302 331 343 257 184 138 111 321 112 292 277 144 103 85 116 141 125 64 47 22 77 95 91 74
294 299 299 300 305 310 312 311 315 319 316 308 305 301 298 305 313 310 294 281 276 276 279 285 290 287 279 274 270 264 261 266 276 286 295 301 310 316 323 335 342 359 15 352 343 345 339 329 327 329 329 328 326 330 332 334 29 35 23 36 50 33 356 289 288 1 351 58 71 348 303 34 67 31 83 92 90 100 113 88 60 41 51 70 79 83 73
292 297 299 300 303 309 315 318 319 317 311 307 305 299 297 302 306 306 299 288 282 284 284 283 283 277 271 271 267 253 245 250 260 267 270 279 299 306 315 352 355 349 355 6 0 332 320 322 319 315 322 337 344 336 325 334 22 33 4 23 81 32 359 335 328 4 7 30 27 348 309 88 84 76 80 84 83 75 75 82 76 58 71 74 61 74 97
292 294 298 300 302 309 318 321 319 315 308 304 302 297 295 296 297 298 295 289 296 308 299 292 288 275 275 295 301 268 239 234 237 243 249 257 281 293 304 351 354 334 328 344 342 316 308 314 303 298 312 329 342 344 327 336 15 21 356 7 115 63 36 34 359 341 343 23 6 342 325 33 46 58 81 81 83 84 74 77 82 81 88 94 95 108 107
292 293 295 297 300 307 316 317 314 311 307 305 306 303 295 292 295 298 295 292 303 310 304 302 293 284 293 312 317 300 275 260 243 225 222 230 249 275 295 320 326 313 310 321 317 304 308 307 291 296 317 328 335 339 332 326 339 342 351 22 30 14 39 49 347 339 12 66 5 328 327 40 29 17 63 82 88 96 91 89 91 87 91 110 136 131 103
289 290 292 293 297 305 312 314 314 312 308 306 306 302 293 290 290 287 286 291 297 288 279 283 286 296 313 319 307 297 296 289 273 244 228 234 244 251 259 282 302 300 297 301 299 297 297 290 289 305 318 318 283 298 302 201 304 319 336 7 1 360 23 39 318 336 28 54 9 343 18 60 39 16 28 54 61 72 77 80 85 88 91 95 93 93 101
284 288 289 289 294 303 308 312 315 313 309 306 301 295 289 284 279 277 288 305 313 293 277 278 291 309 315 309 298 294 284 258 252 249 238 240 252 252 249 264 301 303 301 305 304 297 285 284 294 298 297 289 282 297 310 196 274 307 333 353 352 11 53 42 332 358 34 22 3 5 25 64 39 25 26 33 41 56 60 56 59 69 81 85 73 59 69
280 284 286 287 295 303 306 310 314 312 309 306 299 291 285 276 268 270 294 310 289 281 291 294 296 302 305 301 298 298 284 253 250 248 236 246 260 255 242 240 286 297 301 306 309 307 298 301 303 293 298 317 315 315 323 317 290 293 323 340 348 13 103 97 90 43 19 342 350 24 39 30 30 35 27 14 23 54 64 60 58 58 59 69 76 67 60
276 281 283 288 296 300 304 308 309 305 305 309 305 294 283 270 258 253 262 305 275 278 296 300 289 291 307 314 308 301 283 253 244 242 240 258 272 267 245 221 232 285 293 293 300 300 292 296 299 295 300 315 317 319 318 318 342 344 307 336 355 333 343 98 124 163 273 307 317 56 63 347 332 43 57 31 16 41 58 61 68 70 61 59 70 78 75
275 280 283 289 292 295 302 307 304 297 299 307 306 295 280 250 209 218 191 57 296 289 298 302 291 299 315 309 296 291 285 267 252 244 242 253 270 278 277 275 267 259 263 265 268 276 283 294 296 292 294 303 310 309 305 320 356 332 280 319 2 299 292 90 144 186 213 274 270 81 78 354 308 8 71 64 40 45 53 54 61 72 73 66 67 76 82
273 278 281 285 287 294 304 306 300 293 295 300 301 295 288 58 65 59 47 341 310 296 290 281 279 293 298 279 266 274 283 282 277 270 262 262 267 268 269 278 282 254 261 278 275 269 281 287 278 286 300 345 290 295 294 309 332 320 310 337 335 239 201 165 172 185 156 128 99 70 60 19 348 23 47 50 55 56 54 63 72 75 81 82 78 79 85
271 276 278 279 286 298 306 305 293 284 285 278 267 266 274 282 283 264 327 332 310 293 289 292 291 295 293 288 296 298 287 278 282 282 257 247 262 271 258 259 273 266 264 285 288 279 279 276 277 293 299 155 165 287 292 295 322 329 336 329 292 267 211 135 145 143 132 128 100 76 39 347 353 90 330 336 41 81 76 101 103 94 93 97 95 92 92
268 274 275 280 293 304 305 298 283 279 279 273 265 263 266 267 261 253 259 284 295 284 277 293 295 288 285 300 309 308 292 279 283 277 246 214 224 294 268 247 261 263 232 233 263 269 262 266 284 299 293 200 205 282 292 338 3 311 273 256 261 279 345 37 114 112 112 120 118 122 150 245 246 215 247 297 343 29 353 75 91 86 85 91 93 94 95
266 273 279 289 300 304 303 297 287 282 277 273 273 271 261 249 245 241 238 244 268 277 261 259 278 283 289 293 295 334 348 313 293 283 281 207 177 250 270 253 244 247 219 211 245 264 276 292 296 292 294 297 273 271 314 14 344 276 256 264 299 320 353 357 346 69 102 118 122 127 150 203 229 214 205 242 283 286 289 81 82 74 67 73 78 80 85
265 273 284 295 303 304 301 293 281 275 271 265 263 255 208 216 249 226 203 204 231 269 257 245 268 288 299 296 301 24 1 321 295 291 303 244 194 236 287 294 267 261 245 236 260 268 282 303 301 298 295 294 289 293 346 355 303 281 314 39 350 337 359 3 344 1 51 88 94 97 107 277 274 223 189 200 244 257 244 137 108 98 73 59 65 68 69
269 280 291 300 304 302 293 269 244 239 252 258 248 227 270 304 297 242 210 214 232 259 291 286 274 280 293 295 307 347 340 319 307 318 317 286 239 234 270 273 272 284 123 241 267 281 250 223 264 294 289 295 350 353 316 305 328 3 25 24 5 6 18 7 340 343 358 18 35 32 5 11 11 354 319 298 272 260 258 90 111 122 108 76 61 58 59
275 290 299 301 292 273 265 251 222 209 226 275 288 283 284 280 255 226 215 220 227 227 245 282 271 266 278 287 296 318 323 319 321 323 314 297 286 257 218 248 266 273 232 244 252 253 223 217 236 282 286 292 18 344 314 351 13 22 22 15 11 18 20 14 12 10 7 19 27 12 356 16 24 17 11 353 321 292 294 34 69 112 106 95 83 69 61
283 295 295 285 263 251 265 253 187 177 234 297 299 280 245 221 231 225 201 201 215 207 210 256 261 257 266 273 276 291 306 314 314 314 319 322 316 301 269 272 278 282 283 281 246 156 235 242 256 286 287 107 90 354 1 32 37 25 25 26 20 16 20 28 31 27 26 40 41 20 5 9 14 22 31 9 337 322 325 341 18 64 69 68 71 73 69
288 294 276 255 249 261 325 118 151 184 281 281 268 253 216 204 241 241 186 184 212 207 204 233 245 246 255 263 271 291 306 305 304 312 323 318 311 312 307 302 302 273 285 294 50 114 275 273 267 281 294 89 79 4 342 11 44 39 37 39 33 29 33 37 38 38 45 62 60 42 30 26 18 13 24 35 16 349 330 323 356 50 61 56 53 55 61
268 263 247 245 273 8 58 101 222 290 281 238 222 238 241 221 232 237 202 217 232 208 195 224 239 236 248 268 283 298 302 296 301 317 324 311 298 308 313 312 317 307 298 301 107 208 271 282 289 289 337 90 90 320 297 330 53 53 45 41 37 35 38 41 43 45 50 55 51 43 36 35 32 23 18 33 40 14 346 344 2 15 16 28 50 57 62
233 247 263 302 327 328 319 315 298 270 259 248 240 250 251 235 231 235 248 267 269 222 185 233 267 256 249 266 278 289 303 311 303 296 296 299 296 292 296 299 298 293 293 303 23 235 267 277 287 305 69 97 126 204 231 162 70 64 56 47 36 23 20 34 42 39 34 33 37 38 31 25 27 33 34 38 45 34 9 356 350 334 331 346 23 58 67
263 300 314 317 311 297 284 274 249 229 235 260 262 254 250 247 246 239 230 254 280 281 186 230 288 303 297 288 288 299 323 332 312 286 278 290 306 294 290 294 292 280 283 303 332 298 276 275 285 19 56 55 44 216 174 103 83 72 59 51 41 27 24 31 32 26 21 18 15 21 21 11 8 18 23 27 48 66 16 303 284 317 10 345 341 32 50
284 306 312 307 293 273 257 242 220 209 219 229 235 248 250 234 234 243 238 225 250 277 273 255 280 292 294 294 297 289 251 241 272 291 289 287 299 301 288 281 278 281 290 304 303 283 280 290 309 84 89 49 294 272 90 76 79 82 68 48 48 51 45 40 35 29 22 14 8 7 4 355 354 1 357 348 355 38 46 9 3 12 13 360 2 32 41
283 275 274 271 255 240 241 231 193 182 215 220 217 239 245 228 220 237 256 270 295 293 299 304 300 304 315 322 314 296 254 223 232 270 285 288 295 293 280 277 285 294 295 290 279 272 273 293 34 88 96 65 310 324 51 60 70 80 61 29 41 55 43 27 30 40 37 21 6 359 352 345 345 353 359 1 1 359 357 7 10 2 349 341 7 49 53
246 228 218 239 246 221 212 205 181 195 227 229 224 240 258 274 301 324 25 31 322 295 294 305 313 312 313 311 301 292 298 286 267 267 286 301 295 280 278 289 303 302 297 289 282 277 277 321 51 64 73 63 297 299 334 30 80 86 58 3 26 55 42 20 17 27 34 19 354 348 0 3 353 347 354 359 356 346 344 355 3 355 338 331 340 31 62
249 222 208 241 248 224 216 223 218 217 225 224 224 238 261 295 329 356 25 347 307 300 305 318 318 306 300 302 303 287 281 284 280 279 288 293 283 280 296 308 300 290 287 284 281 284 309 8 29 30 26 320 239 241 301 40 74 92 68 13 3 17 37 38 29 22 23 12 354 354 9 13 1 351 346 342 342 348 354 355 356 355 343 331 330 354 34
237 225 233 259 252 224 222 232 235 244 254 255 254 265 286 306 319 322 314 307 312 320 323 317 305 295 294 301 301 286 277 278 282 284 285 283 278 282 298 297 285 274 269 271 281 316 5 20 21 12 356 341 330 326 333 20 37 32 30 15 341 339 13 38 41 35 23 7 360 6 10 3 354 353 350 345 351 5 9 3 358 353 339 321 318 333 358
234 216 225 242 242 226 226 233 239 244 251 259 268 280 295 303 298 292 294 305 316 316 311 307 305 305 306 305 293 283 280 275 271 270 265 260 269 278 277 261 261 264 272 290 328 7 11 6 7 6 359 353 346 336 325 319 346 40 32 345 327 344 12 11 16 50 41 1 350 15 18 355 341 337 333 337 354 3 8 14 8 355 346 340 337 346 358
258 264 244 241 257 261 254 257 266 265 263 268 275 273 270 278 284 292 313 322 302 294 300 307 304 301 304 310 302 290 283 272 268 272 267 252 254 263 264 258 259 272 331 357 3 359 352 359 6 0 358 4 359 343 332 327 326 341 24 347 323 337 16 4 4 101 97 347 339 19 32 348 329 329 332 342 5 1 360 7 10 3 9 13 8 13 26
245 257 248 243 260 274 269 264 271 274 270 270 272 265 257 265 279 334 47 11 318 311 312 298 278 270 282 301 303 295 288 279 273 275 274 269 265 265 268 275 293 333 355 351 341 329 331 357 9 357 352 357 351 340 345 342 326 319 326 320 301 311 19 28 15 78 107 11 335 339 335 307 316 328 338 347 347 323 336 351 358 24 48 36 22 29 44
232 239 241 240 247 262 274 280 282 284 290 299 306 312 308 288 276 357 40 355 312 300 293 280 267 259 265 273 278 286 298 305 293 277 272 276 289 294 288 296 321 340 341 334 326 320 330 354 2 349 346 351 344 335 342 346 320 310 306 299 304 333 20 36 23 14 72 90 294 298 308 102 107 312 320 331 317 282 270 337 325 334 95 92 71 66 68
222 233 247 248 244 250 260 269 274 281 289 293 294 298 305 300 290 299 317 311 295 285 286 288 285 280 277 275 277 284 294 300 291 280 280 295 354 356 309 307 315 320 327 330 317 312 325 353 1 347 339 343 342 336 333 335 331 321 307 296 308 0 24 16 344 327 296 229 248 286 47 108 123 277 290 288 285 283 239 141 282 286 257 122 108 95 90